Regional Weather Roundup
Issued by NWS Northern Indiana

Home | Current Version | Previous Version | Text Only | Print | Product List | Glossary Off
Versions: 1 2 3 4 5 6 7 8 9 10 11 12 13 14 15 16 17 18 19 20 21 22 23 24 25 26 27 28 29 30 31 32 33 34 35 36 37 38 39 40 41 42 43 44 45 46 47 48 49 50

000
ASUS43 KIWX 281800
RWRIWX

KIWX WEATHER ROUNDUP
NATIONAL WEATHER SERVICE NORTHERN INDIANA
200 PM EDT MON JUL 28 2014

NOTE: "FAIR" INDICATES FEW OR NO CLOUDS BELOW 12,000 FEET WITH NO
SIGNIFICANT WEATHER AND/OR OBSTRUCTIONS TO VISIBILITY.

* THESE STATIONS ARE NOT UNDER NWS QUALITY CONTROL. THEY ALSO MAY NOT
  REPORT WEATHER SUCH AS PRECIPITATION OR FOG.

INZ001>027-281900-
NORTHERN INDIANA

CITY           SKY/WX    TMP DP  RH WIND       PRES   REMARKS
GARY*          PTSUNNY   66  50  55 N17G35    30.10R
VALPARAISO     PTSUNNY   62  51  67 N15G22    30.07F
6HR MIN TEMP:  59; 6HR MAX TEMP:  62;

SOUTH BEND     CLOUDY    61  51  70 NW16G24   30.04S
6HR MIN TEMP:  60; 6HR MAX TEMP:  63;

ELKHART*       PTSUNNY   63  54  72 NW15      30.02S
GOSHEN         PTSUNNY   66  55  67 NW17      30.00S
6HR MIN TEMP:  61; 6HR MAX TEMP:  68;

ANGOLA*        PTSUNNY   68  61  77 NW9       29.97S
FORT WAYNE     PTSUNNY   70  57  63 NW12      29.98S
6HR MIN TEMP:  64; 6HR MAX TEMP:  70;

PERU/GRISSOM   CLOUDY    66  58  76 NW16      30.02R
6HR MIN TEMP:  62; 6HR MAX TEMP:  67;


$$
INZ028>050-281900-
CENTRAL INDIANA

CITY           SKY/WX    TMP DP  RH WIND       PRES   REMARKS
LAFAYETTE      PTSUNNY   69  55  60 N17       30.04R
6HR MIN TEMP:  61; 6HR MAX TEMP:  70;

KOKOMO*        CLOUDY    66  55  68 NW15      30.02R
6HR MIN TEMP:  63; 6HR MAX TEMP:  68;

MUNCIE*        PTSUNNY   71  58  63 NW12G20   29.99S
6HR MIN TEMP:  62; 6HR MAX TEMP:  71;

INDIANAPOLIS   CLOUDY    68  57  68 NW12      30.01S
6HR MIN TEMP:  63; 6HR MAX TEMP:  69;


$$
MIZ043>046-050>051-056>058-064>065-071>073-077>080-281900-
SOUTHWEST LOWER MICHIGAN

CITY           SKY/WX    TMP DP  RH WIND       PRES   REMARKS
BATTLE CREEK   MOSUNNY   67  53  61 NW10      29.98F
6HR MIN TEMP:  60; 6HR MAX TEMP:  69;

BENTON HARBOR  CLOUDY    57  50  77 N10G21    30.05S
6HR MIN TEMP:  56; 6HR MAX TEMP:  58;

COLDWATER*     PTSUNNY   70  54  56 NW12      29.96F
6HR MIN TEMP:  62; 6HR MAX TEMP:  71;

HILLSDALE*     PTSUNNY   68  54  60 N9        29.96S
6HR MIN TEMP:  62; 6HR MAX TEMP:  68;

HOLLAND        SUNNY     62  52  69 W13       30.02S
6HR MIN TEMP:  59; 6HR MAX TEMP:  63;

GRAND RAPIDS   PTSUNNY   70  52  52 NW13      29.98F
6HR MIN TEMP:  58; 6HR MAX TEMP:  70;

KALAMAZOO      PTSUNNY   68  54  60 N12       30.00S
6HR MIN TEMP:  60; 6HR MAX TEMP:  68;

STURGIS*       MOSUNNY   68  57  68 W8        29.98S
THREE RIVERS*  PTSUNNY   69  58  67 NW14      29.99S
6HR MIN TEMP:  61; 6HR MAX TEMP:  69;


$$
OHZ001>008-015>018-024>025-281900-
NORTHWEST OHIO

CITY           SKY/WX    TMP DP  RH WIND       PRES   REMARKS
DEFIANCE       MOSUNNY   74  52  46 NW13G22   29.94S
6HR MIN TEMP:  65; 6HR MAX TEMP:  74;

FINDLAY        PTSUNNY   73  53  49 N16G23    29.91S
6HR MIN TEMP:  64; 6HR MAX TEMP:  75;

TOLEDO EXPRESS PTSUNNY   73  50  44 N7G22     29.92S
6HR MIN TEMP:  63; 6HR MAX TEMP:  73;

TOLEDO METCALF PTSUNNY   71  51  49 N15       29.93S
6HR MIN TEMP:  65; 6HR MAX TEMP:  73;

LIMA           PTSUNNY   72  56  57 NW12      29.93S
6HR MIN TEMP:  63; 6HR MAX TEMP:  72;


$$
&&


USA.gov is the U.S. government's official web portal to all federal, state and local government web resources and services.